This demonstration page uses our WeatherBlox Daily Observations layout. Learn more.

Left ArrowRight Arrow

Hourly Observations for April 2, 2015

Temp ( °F °C ) Dew Point ( °F °C ) Humidity (%) Winds ( mph kmh ) Pressure ( in mb ) Visibility ( mi km ) Precip ( " mm )
12:51 am 00:51 Clear 65 18.3 25 -3.9 22 22 N 12 19 29.78 1009 10 16 0.00 0.00
1:51 am 01:51 Clear 61 16.1 25 -3.9 25 25 VRB 3 6 29.78 1009 10 16 0.00 0.00
2:51 am 02:51 Clear 59 15 23 -5 25 25 E 7 11 29.80 1009 10 16 0.00 0.00
3:51 am 03:51 Clear 53 11.7 24 -4.4 32 32 ENE 7 11 29.80 1009 10 16 0.00 0.00
4:51 am 04:51 Clear 53 11.7 24 -4.4 32 32 Calm 29.80 1009 10 16 0.00 0.00
5:51 am 05:51 Clear 47 8.3 24 -4.4 41 41 E 5 7 29.84 1010 10 16 0.00 0.00
6:51 am 06:51 Sunny 51 10.6 26 -3.3 38 38 E 9 15 29.86 1011 10 16 0.00 0.00
7:51 am 07:51 Sunny 63 17.2 24 -4.4 23 23 ESE 6 9 29.86 1011 10 16 0.00 0.00
8:51 am 08:51 Sunny 68 20 20 -6.7 16 16 Calm 29.87 1012 10 16 0.00 0.00
9:51 am 09:51 Sunny 73 22.8 18 -7.8 12 12 VRB 5 7 29.87 1011 10 16 0.00 0.00
10:51 am 10:51 Sunny 74 23.3 12 -11.1 9 9 S 5 7 29.86 1011 10 16 0.00 0.00
11:51 am 11:51 Sunny 78 25.6 13 -10.6 8 8 VRB 3 6 29.83 1010 10 16 0.00 0.00
12:51 pm 12:51 Sunny 80 26.7 14 -10 8 8 VRB 6 9 29.79 1009 10 16 0.00 0.00
1:51 pm 13:51 Sunny 81 27.2 14 -10 8 8 VRB 5 7 29.77 1008 10 16 0.00 0.00
2:51 pm 14:51 Sunny 84 28.9 14 -10 7 7 NW 23 37 29.74 1007 10 16 0.00 0.00
3:51 pm 15:51 Sunny 83 28.3 15 -9.4 8 8 NW 21 33 29.75 1007 10 16 0.00 0.00
4:51 pm 16:51 Sunny 82 27.8 18 -7.8 9 9 NW 23 37 29.75 1007 10 16 0.00 0.00
5:51 pm 17:51 Sunny 77 25 18 -7.8 11 11 NW 16 26 29.78 1009 10 16 0.00 0.00
6:51 pm 18:51 Clear 74 23.3 20 -6.7 13 13 NW 20 31 29.80 1009 10 16 0.00 0.00
7:51 pm 19:51 Clear 72 22.2 20 -6.7 14 14 NW 20 31 29.80 1009 10 16 0.00 0.00
8:51 pm 20:51 Clear 68 20 21 -6.1 17 17 WNW 10 17 29.84 1011 10 16 0.00 0.00
9:51 pm 21:51 Clear 66 18.9 22 -5.6 19 19 WNW 9 15 29.85 1011 10 16 0.00 0.00
10:51 pm 22:51 Clear 65 18.3 24 -4.4 21 21 NNW 12 19 29.87 1011 10 16 0.00 0.00
11:51 pm 23:51 Clear 65 18.3 26 -3.3 23 23 NNW 13 20 29.88 1012 10 16 0.00 0.00

Powered by AerisWeather